Leesburg, VA

1:11 AM EST on December 15, 2019 (GMT -0500)
Leesburg Executive

Weather History for KJYO - April, 2019

Change the Weather History Date:

Tuesday, April 9, 2019

  Actual Average (KIAD) Record (KIAD)
Temperature  
Mean Temperature 68 °F -  
Max Temperature 78 °F 60 °F 89 °F (2001)
Min Temperature 59 °F 37 °F 23 °F (1977)
Cooling Degree Days 4    
Growing Degree Days 18 (Base 50)    
Moisture  
Dew Point 52 °F    
Average Humidity 60    
Maximum Humidity 94    
Minimum Humidity 24    
Precipitation  
Precipitation 0.00 in - - ()
Sea Level Pressure  
Sea Level Pressure 29.69 in    
Wind  
Wind Speed 6 mph (WNW)    
Max Wind Speed 22 mph    
Max Gust Speed 28 mph    
Visibility 10 miles    
Events      
Averages and records for this station are not official NWS values.
T = Trace of Precipitation, MM = Missing Value Source: NWS Daily Summary

Daily Weather History Graph

Daily Weather History Graph

Search for Another Location

Airport or City:

Astronomy

Apr. 09, 2019 Rise Set
Actual Time 6:42 AM EDT 7:41 PM EDT
Civil Twilight 6:15 AM EDT 8:08 PM EDT
Nautical Twilight 5:43 AM EDT 8:41 PM EDT
Astronomical Twilight 5:09 AM EDT 9:15 PM EDT
Moon 9:29 AM EDT (4/9) No Moon Set
Length of Visible Light 13h 53m
Length of Day
12h 58m
Waxing Crescent, 18% of the Moon is Illuminated
Apr 9
Waxing Crescent
Apr 12
First Quarter
Apr 19
Full
Apr 26
Last Quarter
May 4
New

Hourly Weather History & Observations

Time (EDT) Temp. Dew Point Humidity Pressure Visibility Wind Dir Wind Speed Gust Speed Precip Events Conditions
12:15 AM 64.4 °F 59.0 °F 83% 29.81 in 10.0 mi SW 4.6 mph - N/A   Overcast
12:35 AM 64.4 °F 59.0 °F 83% 29.80 in 10.0 mi SW 3.5 mph - N/A   Overcast
12:55 AM 64.4 °F 59.0 °F 83% 29.80 in 10.0 mi Calm Calm - N/A   Overcast
1:15 AM 62.6 °F 59.0 °F 88% 29.79 in 10.0 mi Calm Calm - N/A   Overcast
1:35 AM 64.4 °F 59.0 °F 83% 29.78 in 10.0 mi Calm Calm - N/A   Overcast
1:55 AM 62.6 °F 59.0 °F 88% 29.78 in 10.0 mi Calm Calm - N/A   Overcast
2:15 AM 62.6 °F 59.0 °F 88% 29.77 in 10.0 mi West 3.5 mph - N/A   Overcast
2:35 AM 60.8 °F 59.0 °F 94% 29.77 in 10.0 mi West 3.5 mph - N/A   Overcast
2:55 AM 62.6 °F 59.0 °F 88% 29.76 in 10.0 mi West 3.5 mph - N/A   Overcast
3:15 AM 62.6 °F 59.0 °F 88% 29.75 in 10.0 mi West 4.6 mph - N/A   Overcast
3:35 AM 62.6 °F 59.0 °F 88% 29.75 in 10.0 mi WNW 4.6 mph - N/A   Overcast
3:55 AM 62.6 °F 57.2 °F 82% 29.74 in 10.0 mi West 3.5 mph - N/A   Scattered Clouds
4:15 AM 60.8 °F 57.2 °F 88% 29.74 in 10.0 mi West 3.5 mph - N/A   Scattered Clouds
4:35 AM 62.6 °F 57.2 °F 82% 29.73 in 10.0 mi Calm Calm - N/A   Mostly Cloudy
4:55 AM 62.6 °F 57.2 °F 82% 29.72 in 10.0 mi Calm Calm - N/A   Mostly Cloudy
5:15 AM 60.8 °F 57.2 °F 88% 29.72 in 10.0 mi NNW 4.6 mph - N/A   Scattered Clouds
5:35 AM 62.6 °F 57.2 °F 82% 29.72 in 10.0 mi WNW 3.5 mph - N/A   Clear
5:55 AM 62.6 °F 57.2 °F 82% 29.72 in 10.0 mi NW 3.5 mph - N/A   Clear
6:15 AM 60.8 °F 57.2 °F 88% 29.72 in 10.0 mi NNW 3.5 mph - N/A   Clear
6:35 AM 60.8 °F 57.2 °F 88% 29.72 in 10.0 mi NNW 3.5 mph - N/A   Clear
6:55 AM 60.8 °F 57.2 °F 88% 29.72 in 10.0 mi ESE 5.8 mph - N/A   Clear
7:15 AM 60.8 °F 55.4 °F 82% 29.73 in 10.0 mi Calm Calm - N/A   Clear
7:35 AM 59.0 °F 57.2 °F 94% 29.73 in 10.0 mi Calm Calm - N/A   Clear
7:55 AM 60.8 °F 57.2 °F 88% 29.73 in 10.0 mi Calm Calm - N/A   Clear
8:15 AM 60.8 °F 59.0 °F 94% 29.74 in 10.0 mi SW 3.5 mph - N/A   Clear
8:35 AM 62.6 °F 59.0 °F 88% 29.73 in 10.0 mi Calm Calm - N/A   Clear
8:55 AM 64.4 °F 59.0 °F 83% 29.72 in 10.0 mi ESE 6.9 mph - N/A   Clear
9:15 AM 64.4 °F 59.0 °F 83% 29.70 in 10.0 mi Calm Calm - N/A   Clear
9:35 AM 64.4 °F 59.0 °F 83% 29.71 in 10.0 mi Calm Calm - N/A   Clear
9:55 AM 66.2 °F 59.0 °F 78% 29.70 in 10.0 mi Calm Calm - N/A   Clear
10:15 AM 68.0 °F 59.0 °F 73% 29.71 in 10.0 mi South 4.6 mph - N/A   Clear
10:35 AM 69.8 °F 59.0 °F 68% 29.70 in 10.0 mi WNW 9.2 mph - N/A   Clear
10:55 AM 71.6 °F 59.0 °F 64% 29.70 in 10.0 mi WNW 13.8 mph 18.4 mph N/A   Clear
11:15 AM 71.6 °F 57.2 °F 60% 29.70 in 10.0 mi WNW 9.2 mph - N/A   Clear
11:35 AM 71.6 °F 55.4 °F 57% 29.70 in 10.0 mi West 11.5 mph 17.3 mph N/A   Scattered Clouds
11:55 AM 73.4 °F 55.4 °F 53% 29.69 in 10.0 mi NW 11.5 mph 19.6 mph N/A   Scattered Clouds
12:15 PM 73.4 °F 57.2 °F 57% 29.69 in 10.0 mi NW 5.8 mph 9.2 mph N/A   Scattered Clouds
12:35 PM 73.4 °F 55.4 °F 53% 29.68 in 10.0 mi WNW 11.5 mph 17.3 mph N/A   Mostly Cloudy
12:55 PM 73.4 °F 55.4 °F 53% 29.66 in 10.0 mi West 10.4 mph 17.3 mph N/A   Scattered Clouds
1:15 PM 73.4 °F 55.4 °F 53% 29.65 in 10.0 mi WSW 11.5 mph 16.1 mph N/A   Clear
1:35 PM 75.2 °F 55.4 °F 50% 29.64 in 10.0 mi West 11.5 mph - N/A   Scattered Clouds
1:55 PM 75.2 °F 55.4 °F 50% 29.63 in 10.0 mi WNW 5.8 mph - N/A   Scattered Clouds
2:15 PM 77.0 °F 53.6 °F 44% 29.62 in 10.0 mi West 9.2 mph - N/A   Scattered Clouds
2:35 PM 78.8 °F 53.6 °F 42% 29.62 in 10.0 mi NW 19.6 mph 25.3 mph N/A   Scattered Clouds
2:55 PM 78.8 °F 51.8 °F 39% 29.61 in 10.0 mi West 16.1 mph 25.3 mph N/A   Scattered Clouds
3:15 PM 78.8 °F 51.8 °F 39% 29.60 in 10.0 mi West 12.7 mph 21.9 mph N/A   Scattered Clouds
3:35 PM 78.8 °F 53.6 °F 42% 29.59 in 10.0 mi WNW 17.3 mph 23.0 mph N/A   Clear
3:55 PM 78.8 °F 51.8 °F 39% 29.58 in 10.0 mi WNW 12.7 mph - N/A   Clear
4:15 PM 78.8 °F 51.8 °F 39% 29.57 in 10.0 mi West 17.3 mph 20.7 mph N/A   Scattered Clouds
4:35 PM 78.8 °F 51.8 °F 39% 29.57 in 10.0 mi WNW 12.7 mph 23.0 mph N/A   Scattered Clouds
4:55 PM 78.8 °F 50.0 °F 36% 29.56 in 10.0 mi West 16.1 mph 23.0 mph N/A   Scattered Clouds
5:15 PM 78.8 °F 50.0 °F 36% 29.56 in 10.0 mi WNW 21.9 mph 27.6 mph N/A   Scattered Clouds
5:35 PM 78.8 °F 50.0 °F 36% 29.56 in 10.0 mi WNW 16.1 mph 27.6 mph N/A   Scattered Clouds
5:55 PM 78.8 °F 50.0 °F 36% 29.56 in 10.0 mi NW 17.3 mph 24.2 mph N/A   Scattered Clouds
6:15 PM 77.0 °F 50.0 °F 39% 29.57 in 10.0 mi NW 13.8 mph 21.9 mph N/A   Scattered Clouds
6:35 PM 75.2 °F 50.0 °F 41% 29.58 in 10.0 mi NW 15.0 mph 24.2 mph N/A   Scattered Clouds
6:55 PM 75.2 °F 50.0 °F 41% 29.59 in 10.0 mi NW 15.0 mph 23.0 mph N/A   Scattered Clouds
7:15 PM 73.4 °F 48.2 °F 41% 29.61 in 10.0 mi NW 13.8 mph 20.7 mph N/A   Clear
7:55 PM 71.6 °F 44.6 °F 38% 29.63 in 10.0 mi North 9.2 mph - N/A   Mostly Cloudy
8:15 PM 71.6 °F 35.6 °F 27% 29.64 in 10.0 mi North 16.1 mph 24.2 mph N/A   Scattered Clouds
8:35 PM 69.8 °F 33.8 °F 27% 29.66 in 10.0 mi North 16.1 mph 25.3 mph N/A   Clear
8:55 PM 69.8 °F 32.0 °F 25% 29.67 in 10.0 mi North 19.6 mph 25.3 mph N/A   Clear
9:15 PM 68.0 °F 32.0 °F 26% 29.69 in 10.0 mi NNW 18.4 mph 24.2 mph N/A   Clear
9:35 PM 68.0 °F 30.2 °F 24% 29.70 in 10.0 mi North 18.4 mph 25.3 mph N/A   Clear
9:55 PM 66.2 °F 30.2 °F 26% 29.72 in 10.0 mi North 12.7 mph 23.0 mph N/A   Clear
10:15 PM 64.4 °F 30.2 °F 28% 29.72 in 10.0 mi North 17.3 mph 21.9 mph N/A   Clear
10:35 PM 64.4 °F 30.2 °F 28% 29.73 in 10.0 mi North 11.5 mph - N/A   Clear
10:55 PM 62.6 °F 30.2 °F 30% 29.73 in 10.0 mi North 8.1 mph - N/A   Clear
11:15 PM 62.6 °F 30.2 °F 30% 29.74 in 10.0 mi North 11.5 mph 16.1 mph N/A   Clear
11:35 PM 60.8 °F 30.2 °F 31% 29.75 in 10.0 mi North 6.9 mph - N/A   Clear
11:55 PM 62.6 °F 30.2 °F 30% 29.76 in 10.0 mi NE 4.6 mph - N/A   Clear